Location: *
(49.5667°N, 1.3667°W)
Time: 02:59:54
(UTC+00:00)

CZ-2C R/B - Pass Details

Date: 20 September 2019
Orbit: 639 x 705 km, 98.4° (Epoch: 18 October)

Event Time Altitude Azimuth Distance (km) Brightness Sun altitude
Rises 19:28:15 0° 16° (NNE) 2,981 7.1 -13.5°
Reaches altitude 10° 19:30:31 10° 20° (NNE) 2,058 6.2 -13.9°
Maximum altitude 19:34:58 64° 103° (ESE) 714 3.6 -14.5°
Drops below altitude 10° 19:39:20 10° 185° (S) 2,027 6.0 -15.2°
Sets 19:41:32 0° 188° (S) 2,932 6.9 -15.5°
